Sitka, AK

11:38 AM AKST on December 15, 2017 (GMT -0900)
Sitka Rocky Gutierrez

Weather History for PASI - September, 2013

Change the Weather History Date:

Tuesday, September 17, 2013

  Actual Average Record
Temperature  
Mean Temperature 54 °F -  
Max Temperature 59 °F 58 °F 70 °F (1967)
Min Temperature 51 °F 46 °F 37 °F (1983)
Degree Days  
Heating Degree Days 11    
Growing Degree Days 4 (Base 50)    
Moisture  
Dew Point 49 °F    
Average Humidity 85    
Maximum Humidity 93    
Minimum Humidity 72    
Precipitation  
Precipitation 0.47 in - - ()
Sea Level Pressure  
Sea Level Pressure 29.68 in    
Wind  
Wind Speed 8 mph (ESE)    
Max Wind Speed 13 mph    
Max Gust Speed 22 mph    
Visibility 8 miles    
Events Rain    
Averages and records for this station are not official NWS values.
T = Trace of Precipitation, MM = Missing Value Source: NWS Daily Summary

Daily Weather History Graph

Daily Weather History Graph

Search for Another Location

Airport or City:

Trip Planner

Search our weather history database for the weather conditions in past years. The results will help you decide how hot, cold, wet, or windy it might be!

Date:

Astronomy

Sep. 17, 2013 Rise Set
Actual Time 6:37 AM AKDT 7:13 PM AKDT
Civil Twilight 5:58 AM AKDT 7:51 PM AKDT
Nautical Twilight 5:11 AM AKDT 8:37 PM AKDT
Astronomical Twilight 4:21 AM AKDT 9:27 PM AKDT
Moon 6:12 PM AKDT (9/17) 4:25 AM AKDT (9/17)
Length of Visible Light 13h 53m
Length of Day
12h 36m
Waxing Gibbous, 96% of the Moon is Illuminated
Sep 17
Waxing Gibbous
Sep 19
Full
Sep 26
Last Quarter
Oct 4
New
Oct 11
First Quarter

Hourly Weather History & Observations

Time (AKDT) Temp. Dew Point Humidity Pressure Visibility Wind Dir Wind Speed Gust Speed Precip Events Conditions
12:53 AM 52.0 °F 48.9 °F 89% 29.65 in 10.0 mi East 5.8 mph - N/A   Scattered Clouds
1:53 AM 55.0 °F 46.9 °F 74% 29.64 in 10.0 mi ESE 9.2 mph - N/A   Mostly Cloudy
2:53 AM 54.0 °F 48.0 °F 80% 29.63 in 10.0 mi ESE 10.4 mph - 0.00 in Rain Light Rain
3:53 AM 54.0 °F 48.0 °F 80% 29.63 in 10.0 mi SE 6.9 mph - 0.02 in Rain Light Rain
4:35 AM 52.0 °F 50.0 °F 93% 29.65 in 2.0 mi South 12.7 mph 21.9 mph 0.13 in Rain Heavy Rain
4:42 AM 52.0 °F 50.0 °F 93% 29.65 in 2.5 mi SSE 12.7 mph 21.9 mph 0.18 in Rain Heavy Rain
4:46 AM 52.0 °F 48.0 °F 86% 29.65 in 3.0 mi South 12.7 mph 20.7 mph 0.19 in Rain Heavy Rain
4:53 AM 53.1 °F 48.9 °F 86% 29.65 in 5.0 mi SSE 8.1 mph - 0.22 in Rain Rain
5:53 AM 51.1 °F 48.9 °F 92% 29.64 in 7.0 mi East 9.2 mph - 0.06 in Rain Light Rain
6:45 AM 52.0 °F 46.9 °F 83% 29.63 in 10.0 mi East 10.4 mph - 0.01 in   Overcast
6:53 AM 52.0 °F 46.9 °F 83% 29.63 in 10.0 mi East 9.2 mph - 0.01 in   Overcast
7:53 AM 52.0 °F 48.0 °F 86% 29.64 in 10.0 mi East 10.4 mph - 0.00 in   Overcast
8:53 AM 54.0 °F 50.0 °F 86% 29.64 in 10.0 mi East 8.1 mph - N/A   Overcast
9:53 AM 54.0 °F 48.9 °F 83% 29.66 in 10.0 mi Calm Calm - 0.02 in Rain Light Rain
10:53 AM 55.0 °F 48.9 °F 80% 29.66 in 10.0 mi Calm Calm - 0.01 in   Overcast
11:31 AM 54.0 °F 50.0 °F 86% 29.67 in 10.0 mi NW 8.1 mph - N/A   Overcast
11:53 AM 54.0 °F 50.0 °F 86% 29.67 in 10.0 mi NW 6.9 mph - N/A   Overcast
12:53 PM 57.0 °F 51.1 °F 81% 29.68 in 10.0 mi NNW 4.6 mph - N/A   Overcast
1:53 PM 57.9 °F 51.1 °F 78% 29.68 in 10.0 mi North 4.6 mph - N/A   Overcast
2:53 PM 57.9 °F 48.9 °F 72% 29.69 in 10.0 mi East 4.6 mph - 0.00 in   Overcast
3:53 PM 57.9 °F 50.0 °F 75% 29.69 in 10.0 mi ESE 10.4 mph - N/A   Overcast
4:53 PM 55.9 °F 50.0 °F 80% 29.70 in 10.0 mi ESE 8.1 mph - 0.00 in Rain Light Rain
5:53 PM 57.0 °F 48.9 °F 74% 29.70 in 10.0 mi East 8.1 mph - 0.00 in   Mostly Cloudy
6:53 PM 55.0 °F 50.0 °F 83% 29.71 in 10.0 mi East 5.8 mph - N/A   Scattered Clouds
7:11 PM 54.0 °F 51.1 °F 90% 29.71 in 5.0 mi Calm Calm - 0.02 in Rain Rain
7:15 PM 54.0 °F 51.1 °F 90% 29.72 in 2.5 mi Calm Calm - 0.10 in Rain Light Rain
7:23 PM 54.0 °F 51.1 °F 90% 29.72 in 3.0 mi East 4.6 mph - 0.11 in Rain Light Rain
7:53 PM 54.0 °F 51.1 °F 90% 29.73 in 10.0 mi East 9.2 mph - 0.11 in   Mostly Cloudy
8:53 PM 53.1 °F 48.9 °F 86% 29.73 in 10.0 mi East 8.1 mph - N/A   Mostly Cloudy
9:53 PM 52.0 °F 48.0 °F 86% 29.74 in 10.0 mi ESE 8.1 mph - N/A   Mostly Cloudy
10:00 PM 52.0 °F 48.9 °F 89% 29.74 in 10.0 mi East 6.9 mph - N/A   Mostly Cloudy
10:53 PM 52.0 °F 48.9 °F 89% 29.75 in 10.0 mi ESE 4.6 mph - N/A   Overcast
11:53 PM 51.1 °F 48.9 °F 92% 29.75 in 10.0 mi East 5.8 mph - 0.02 in   Overcast